Flag for Dominican Republic Past Weather in Santiago de los Caballeros, Dominican Republic — Yesterday and Last 2 Weeks

Now
75 °F

Scattered clouds.


Feels Like: 75 °F
Forecast: N/A
Wind: 14 mph from East

Location: Santiago

Current Time: Jun 24, 2016 at 7:54:13 PM

Latest Report: Jun 24, 2016 at 7:00 PM


Visibility: N/A

Pressure: 30.04 "Hg

Humidity: 89%

Dew Point: 72 °F

Location of Santiago de los CaballerosLocation

Past Weather in Santiago de los Caballeros — Graph

°F

Santiago de los Caballeros Temperature Yesterday

Maximum temperature yesterday: 90 °F (at 3:00 PM)
Minimum temperature yesterday: 73 °F (at 4:00 AM)
Average temperature yesterday: 79 °F

High & Low Weather Summary for the Past Weeks

 TemperatureHumidityPressure
High93 °F (Jun 10, 3:00 PM)100% (Jun 13, 6:00 AM)30.15 "Hg (Jun 13, 6:00 AM)
Low70 °F (Jun 22, 4:00 AM)39% (Jun 11, 5:00 PM)29.89 "Hg (Jun 16, 8:00 AM)
Average81 °F77%30.04 "Hg
* Reported Jun 9 6:00 PM — Jun 24 6:00 PM, Santiago de los Caballeros, Weather by CustomWeather, © 2016

Note: Actual official high and low records may vary slightly from our data, if they occured in-between our weather recording intervals... More about our weather records

Advertising

Santiago de los Caballeros Weather History for the Previous 24 Hours

Scroll right to see more
 ConditionsComfort  
Time TempWeatherWind HumidityBarometerVisibility
6:00 PM
Fri, Jun 24
75 °FStrong thunderstorms. Partly sunny.9 mph89%30.04 "Hg3 mi
5:00 PM88 °FScattered clouds.18 mph59%29.98 "HgN/A
4:00 PM90 °FScattered clouds.12 mph59%29.98 "HgN/A
3:00 PM91 °FScattered clouds.12 mph52%30.01 "HgN/A
2:00 PM88 °FScattered clouds.16 mph55%30.04 "HgN/A
1:00 PM90 °FPassing clouds.14 mph55%30.04 "HgN/A
12:00 PM88 °FScattered clouds.12 mph59%30.07 "HgN/A
11:00 AM84 °FScattered clouds.9 mph70%30.07 "HgN/A
10:00 AM82 °FScattered clouds.13 mph74%30.07 "HgN/A
9:00 AM81 °FPassing clouds.9 mph79%30.07 "HgN/A
8:00 AM75 °FPassing clouds.7 mph94%30.07 "HgN/A
7:00 AM73 °FPassing clouds.5 mph100%30.04 "HgN/A
6:00 AM73 °FPassing clouds.3 mph100%30.04 "HgN/A
5:00 AM73 °FPassing clouds.7 mph100%30.04 "HgN/A
4:00 AM73 °FPassing clouds.9 mph100%30.04 "HgN/A
3:00 AM75 °FPassing clouds.7 mph94%30.04 "HgN/A
2:00 AM73 °FPassing clouds.7 mph94%30.07 "HgN/A
1:00 AM73 °FPassing clouds.5 mph94%30.07 "HgN/A
12:00 AM73 °FPassing clouds.7 mph94%30.09 "HgN/A
11:00 PM
Thu, Jun 23
75 °FPassing clouds.6 mph89%30.09 "HgN/A
9:00 PM77 °FThundershowers. Passing clouds.7 mph89%30.09 "HgN/A
8:00 PM79 °FPassing clouds.9 mph84%30.07 "HgN/A
7:00 PM79 °FBroken clouds.5 mph89%30.04 "HgN/A
Weather by CustomWeather, © 2016

See weather overviewHow to use our weather pages